Regional Weather Roundup
Issued by NWS

Home | Current Version | Previous Version | Text Only | Print | Product List | Glossary Off
Versions: 1 2 3 4 5 6 7 8 9 10 11 12 13 14 15 16 17 18 19 20 21 22 23 24 25 26 27 28 29 30 31 32 33 34 35 36 37 38 39 40 41 42 43 44 45 46 47 48 49 50

000
ASUS45 KBOU 050107
RWRCO

WEATHER ROUNDUP FOR COLORADO
NATIONAL WEATHER SERVICE DENVER/BOULDER CO
600 PM MST THU FEB 04 2016

NOTE: "FAIR" INDICATES FEW OR NO CLOUDS BELOW 12000 FEET WITH NO
SIGNIFICANT WEATHER AND/OR OBSTRUCTIONS TO VISIBILITY.

COZ001>005-013-030-031-050200-
...NORTHWEST COLORADO...

CITY           SKY/WX    TMP DP  RH WIND       PRES   REMARKS
CRAIG          LGT SNOW  16  11  80 NE5       30.31S WCI   9
HAYDEN         CLOUDY    12   9  85 E5        30.29S VSB 1   WCI   4
MEEKER         LGT SNOW  18  15  88 CALM      30.30S FOG
MOUNT WERNER   NOT AVBL
STEAMBOAT SPGS CLOUDY     9   6  88 CALM      30.28S
WALDEN         CLOUDY    16   7  67 SW22      30.17S WCI  -2
$$

COZ006>008-011-050200-
...WEST CENTRAL VALLEYS...

CITY           SKY/WX    TMP DP  RH WIND       PRES   REMARKS
GRAND JUNCTION FLURRIES  16  14  92 CALM      30.42S
MONTROSE       CLOUDY    17   5  59 CALM      30.38S
EAGLE          LGT SNOW  16  12  86 CALM      30.32R FOG
RIFLE          LGT SNOW  17  11  77 CALM      30.38S
DELTA          CLOUDY    22  12  67 CALM      30.40R
NUCLA          CLOUDY    19  14  79 CALM      30.40R
$$

COZ017>023-064>068-050200-
...SOUTHWEST COLORADO...

CITY           SKY/WX    TMP DP  RH WIND       PRES   REMARKS
DURANGO        CLOUDY    14   4  64 CALM      30.28S
CORTEZ         CLOUDY    21  15  78 E6        30.33F WCI  13
PAGOSA SPRINGS CLOUDY    15   6  69 CALM      30.24S
TELLURIDE      CLOUDY    12   4  73 NW3       30.23S
WOLF CREEK PAS CLOUDY     1   0  92 SW13      30.12F WCI -16
$$

COZ009-010-012-014-032>034-037-058>063-050200-
...CENTRAL COLORADO...

CITY           SKY/WX    TMP DP  RH WIND       PRES   REMARKS
ASPEN          LGT SNOW  14   9  80 N6        30.23R WCI   5
BUENA VISTA    CLOUDY    20   3  48 SE5       30.14F WCI  13
COPPER MTN     LGT SNOW  10   3  72 W12G17    30.08F WCI  -4
BERTHOUD PASS  LGT SNOW   0  -9  65 NW25      30.03F WCI -25
COTTONWOOD PAS CLOUDY    21   3  45 E3        30.10S
GUNNISON       CLOUDY     0  -9  65 CALM      30.32F
KREMMLING      FLURRIES   3  -2  78 CALM      30.28S
LEADVILLE      CLOUDY    11   4  73 NE6       30.12S WCI   1
MONARCH PASS   CLOUDY     1  -2  85 MISG      30.16F
SALIDA         CLOUDY    23   6  48 SW23G30   30.23R WCI   8
SUNLIGHT       LGT SNOW  10   9  92 CALM        N/A
WILKERSON PASS CLOUDY    12   5  73 W12G20    30.07S WCI  -2
$$

COZ069>075-050200-
...SAN LUIS VALLEY/SANGRE DE CRISTO MOUNTAINS...

CITY           SKY/WX    TMP DP  RH WIND       PRES   REMARKS
ALAMOSA        CLOUDY    14   1  56 N6        30.21F WCI   5
LA VETA PASS   CLOUDY    10  -4  52 MISG      30.07S
SAGUACHE       CLOUDY    14   3  62 CALM      30.22S
$$

COZ035-036-038>040-050200-
...NORTHERN COLORADO FRONT RANGE...

CITY           SKY/WX    TMP DP  RH WIND       PRES   REMARKS
DENVER INTL AP CLOUDY    20   8  60 W5        30.13R WCI  13
DMNS CITY PARK   N/A     24   9  52 NE6       30.13S WCI  17
AURORA         CLOUDY    20  10  65 CALM      30.13R
FRONT RANGE AP CLOUDY    19  12  73 CALM      30.14R
ERIE MUNI ARPT CLOUDY    23  12  64 NW3       30.15R
BOULDER MUN AP CLOUDY    25  10  54 CALM      30.14R
CENTENNIAL     CLOUDY    23  10  57 N3        30.12R
BROOMFIELD     CLOUDY    25   9  50 N6        30.13R WCI  18
FORT COLLINS   CLOUDY    25  10  54 CALM      30.16R
LONGMONT       CLOUDY    26  11  55 CALM      30.17S
$$

COZ041-046-047-076>085-087-088-050200-
...PIKES PEAK/PALMER DIVIDE AND SOUTHERN FOOTHILLS...

CITY           SKY/WX    TMP DP  RH WIND       PRES   REMARKS
COLO. SPRINGS  CLOUDY    23  10  57 E7        30.14R WCI  15
A. F. ACADEMY  CLOUDY    22   8  54 SE3       30.11R
SCHRIEVER AFB  CLOUDY    22   5  48 N3        30.15R
ELLICOTT       NOT AVBL
FALCON         CLOUDY    20   6  53 CALM      30.12S
FORT CARSON    CLOUDY    23  11  61 NE2       30.13R
LIMON          CLOUDY    20   8  60 S5        30.16R WCI  13
MONUMENT HILL  CLOUDY    21   5  49 S9        30.10R WCI  11
TRINIDAD       CLOUDY    33   6  32 N6        30.11S WCI  28
$$

COZ042>045-048>051-090-091-050200-
...NORTHEAST COLORADO...

CITY           SKY/WX    TMP DP  RH WIND       PRES   REMARKS
GREELEY ARPT   CLOUDY    21  14  73 W5        30.17R WCI  15
AKRON          CLOUDY    26   9  48 S10       30.15R WCI  16
BURLINGTON     CLOUDY    23  11  60 S12       30.20S WCI  12
WRAY           CLOUDY    26  14  59 SW3       30.20S
STERLING       CLOUDY    23  12  63 CALM      30.18R
HOLYOKE        CLOUDY    21  14  73 W7        30.20R WCI  13
FORT MORGAN    CLOUDY    26  10  51 CALM      30.17R
$$

COZ086-089-092>099-050200-
...SOUTHEAST COLORADO...

CITY           SKY/WX    TMP DP  RH WIND       PRES   REMARKS
PUEBLO         CLOUDY    29  14  53 E7        30.15S WCI  22
LA JUNTA       CLOUDY    24  17  74 NE6       30.18S WCI  17
LAMAR          CLOUDY    28  18  66 E5        30.19S WCI  23
SPRINGFIELD      N/A     27  16  63 E3        30.18S
$$



USA.gov is the U.S. government's official web portal to all federal, state and local government web resources and services.